Retour au catalogue

ION SCV-004

ActifScienceSSO
NORAD 50993·PAYLOAD·🇮🇹 Italy

Lancé Jan 13, 2022 depuis Cape Canaveral Space Force Station

Loading…

Prochains Passages (prochaines 24 heures)

TLE

FraisSource: Space-Track

Époque: Sep 13, 2026, 17:45 UTC

1 50993U 22002K   26256.74010927  .00003483  00000-0  11801-3 0  9995
2 50993  97.2740 312.7355 0008318  48.5271 311.6683 15.31198247258846

Suivez ION SCV-004 en temps réel avec AllMySat

Download on the App Store